Year,Month,Day,Hour,Minute,Value (Times are PST for temperature in C)
2019,04,17,00,00,8.20
2019,04,17,00,01,8.20
2019,04,17,00,02,8.20
2019,04,17,00,03,8.10
2019,04,17,00,04,8.10
2019,04,17,00,05,8.10
2019,04,17,00,06,8.10
2019,04,17,00,07,8.10
2019,04,17,00,08,8.10
2019,04,17,00,09,8.10
2019,04,17,00,10,8.10
2019,04,17,00,11,8.10
2019,04,17,00,12,8.00
2019,04,17,00,13,8.10
2019,04,17,00,14,8.10
2019,04,17,00,15,8.00
2019,04,17,00,16,8.00
2019,04,17,00,17,8.00
2019,04,17,00,18,8.00
2019,04,17,00,19,7.90
2019,04,17,00,20,7.90
2019,04,17,00,21,7.90
2019,04,17,00,22,7.90
2019,04,17,00,23,7.90
2019,04,17,00,24,7.90
2019,04,17,00,25,7.90
2019,04,17,00,26,7.80
2019,04,17,00,27,7.70
2019,04,17,00,28,7.60
2019,04,17,00,29,7.60
2019,04,17,00,30,7.50
2019,04,17,00,31,7.40
2019,04,17,00,32,7.40
2019,04,17,00,33,7.30
2019,04,17,00,34,7.30
2019,04,17,00,35,7.30
2019,04,17,00,36,7.20
2019,04,17,00,37,7.20
2019,04,17,00,38,7.20
2019,04,17,00,39,7.10
2019,04,17,00,40,7.10
2019,04,17,00,41,7.10
2019,04,17,00,42,7.10
2019,04,17,00,43,7.00
2019,04,17,00,44,7.00
2019,04,17,00,45,7.10
2019,04,17,00,46,7.10
2019,04,17,00,47,7.10
2019,04,17,00,48,7.10
2019,04,17,00,49,7.10
2019,04,17,00,50,7.20
2019,04,17,00,51,7.20
2019,04,17,00,52,7.10
2019,04,17,00,53,7.10
2019,04,17,00,54,7.10
2019,04,17,00,55,7.10
2019,04,17,00,56,7.00
2019,04,17,00,57,7.00
2019,04,17,00,58,7.00
2019,04,17,00,59,6.90
2019,04,17,01,00,6.90
2019,04,17,01,01,6.90
2019,04,17,01,02,6.90
2019,04,17,01,03,6.80
2019,04,17,01,04,6.80
2019,04,17,01,05,6.80
2019,04,17,01,06,6.70
2019,04,17,01,07,6.70
2019,04,17,01,08,6.70
2019,04,17,01,09,6.70
2019,04,17,01,10,6.60
2019,04,17,01,11,6.60
2019,04,17,01,12,6.50
2019,04,17,01,13,6.50
2019,04,17,01,14,6.50
2019,04,17,01,15,6.50
2019,04,17,01,16,6.40
2019,04,17,01,17,6.40
2019,04,17,01,18,6.40
2019,04,17,01,19,6.40
2019,04,17,01,20,6.40
2019,04,17,01,21,6.40
2019,04,17,01,22,6.30
2019,04,17,01,23,6.30
2019,04,17,01,24,6.30
2019,04,17,01,25,6.30
2019,04,17,01,26,6.30
2019,04,17,01,27,6.30
2019,04,17,01,28,6.30
2019,04,17,01,29,6.30
2019,04,17,01,30,6.20
2019,04,17,01,31,6.20
2019,04,17,01,32,6.20
2019,04,17,01,33,6.20
2019,04,17,01,34,6.20
2019,04,17,01,35,6.20
2019,04,17,01,36,6.20
2019,04,17,01,37,6.20
2019,04,17,01,38,6.10
2019,04,17,01,39,6.10
2019,04,17,01,40,6.10
2019,04,17,01,41,6.10
2019,04,17,01,42,6.10
2019,04,17,01,43,6.10
2019,04,17,01,44,6.10
2019,04,17,01,45,6.10
2019,04,17,01,46,6.10
2019,04,17,01,47,6.00
2019,04,17,01,48,6.00
2019,04,17,01,49,6.00
2019,04,17,01,50,6.00
2019,04,17,01,51,5.90
2019,04,17,01,52,5.90
2019,04,17,01,53,5.90
2019,04,17,01,54,5.90
2019,04,17,01,55,5.90
2019,04,17,01,56,5.90
2019,04,17,01,57,5.90
2019,04,17,01,58,5.90
2019,04,17,01,59,5.90
2019,04,17,02,00,6.00
2019,04,17,02,01,6.00
2019,04,17,02,02,6.10
2019,04,17,02,03,6.10
2019,04,17,02,04,6.10
2019,04,17,02,05,6.10
2019,04,17,02,06,6.10
2019,04,17,02,07,6.20
2019,04,17,02,08,6.20
2019,04,17,02,09,6.20
2019,04,17,02,10,6.30
2019,04,17,02,11,6.30
2019,04,17,02,12,6.30
2019,04,17,02,13,6.20
2019,04,17,02,14,6.20
2019,04,17,02,15,6.10
2019,04,17,02,16,6.00
2019,04,17,02,17,5.90
2019,04,17,02,18,5.90
2019,04,17,02,19,5.90
2019,04,17,02,20,5.90
2019,04,17,02,21,5.90
2019,04,17,02,22,5.90
2019,04,17,02,23,5.90
2019,04,17,02,24,5.90
2019,04,17,02,25,5.90
2019,04,17,02,26,6.00
2019,04,17,02,27,6.10
2019,04,17,02,28,6.10
2019,04,17,02,29,6.10
2019,04,17,02,30,6.00
2019,04,17,02,31,6.00
2019,04,17,02,32,6.00
2019,04,17,02,33,6.00
2019,04,17,02,34,5.90
2019,04,17,02,35,5.90
2019,04,17,02,36,5.90
2019,04,17,02,37,5.90
2019,04,17,02,38,5.80
2019,04,17,02,39,5.80
2019,04,17,02,40,5.80
2019,04,17,02,41,5.80
2019,04,17,02,42,5.80
2019,04,17,02,43,5.80
2019,04,17,02,44,5.80
2019,04,17,02,45,5.80
2019,04,17,02,46,5.80
2019,04,17,02,47,5.80
2019,04,17,02,48,5.80
2019,04,17,02,49,5.80
2019,04,17,02,50,5.80
2019,04,17,02,51,5.80
2019,04,17,02,52,5.80
2019,04,17,02,53,5.80
2019,04,17,02,54,5.80
2019,04,17,02,55,5.90
2019,04,17,02,56,5.90
2019,04,17,02,57,5.90
2019,04,17,02,58,5.90
2019,04,17,02,59,5.90
2019,04,17,03,00,5.80
2019,04,17,03,01,5.80
2019,04,17,03,02,5.80
2019,04,17,03,03,5.80
2019,04,17,03,04,5.80
2019,04,17,03,05,5.80
2019,04,17,03,06,5.80
2019,04,17,03,07,5.80
2019,04,17,03,08,5.80
2019,04,17,03,09,5.80
2019,04,17,03,10,5.80
2019,04,17,03,11,5.90
2019,04,17,03,12,5.90
2019,04,17,03,13,5.90
2019,04,17,03,14,5.90
2019,04,17,03,15,5.90
2019,04,17,03,16,5.90
2019,04,17,03,17,5.90
2019,04,17,03,18,6.00
2019,04,17,03,19,6.00
2019,04,17,03,20,6.00
2019,04,17,03,21,6.00
2019,04,17,03,22,6.10
2019,04,17,03,23,6.10
2019,04,17,03,24,6.10
2019,04,17,03,25,6.10
2019,04,17,03,26,6.20
2019,04,17,03,27,6.20
2019,04,17,03,28,6.20
2019,04,17,03,29,6.20
2019,04,17,03,30,6.20
2019,04,17,03,31,6.30
2019,04,17,03,32,6.30
2019,04,17,03,33,6.30
2019,04,17,03,34,6.30
2019,04,17,03,35,6.40
2019,04,17,03,36,6.40
2019,04,17,03,37,6.40
2019,04,17,03,38,6.50
2019,04,17,03,39,6.60
2019,04,17,03,40,6.70
2019,04,17,03,41,6.80
2019,04,17,03,42,6.80
2019,04,17,03,43,6.90
2019,04,17,03,44,6.90
2019,04,17,03,45,7.00
2019,04,17,03,46,7.10
2019,04,17,03,47,7.10
2019,04,17,03,48,7.20
2019,04,17,03,49,7.30
2019,04,17,03,50,7.30
2019,04,17,03,51,7.40
2019,04,17,03,52,7.50
2019,04,17,03,53,7.60
2019,04,17,03,54,7.60
2019,04,17,03,55,7.70
2019,04,17,03,56,7.80
2019,04,17,03,57,7.80
2019,04,17,03,58,7.80
2019,04,17,03,59,7.90
2019,04,17,04,00,7.90
2019,04,17,04,01,8.00
2019,04,17,04,02,8.10
2019,04,17,04,03,8.10
2019,04,17,04,04,8.10
2019,04,17,04,05,8.10
2019,04,17,04,06,8.10
2019,04,17,04,07,8.20
2019,04,17,04,08,8.20
2019,04,17,04,09,8.20
2019,04,17,04,10,8.20
2019,04,17,04,11,8.20
2019,04,17,04,12,8.20
2019,04,17,04,13,8.20
2019,04,17,04,14,8.20
2019,04,17,04,15,8.30
2019,04,17,04,16,8.30
2019,04,17,04,17,8.30
2019,04,17,04,18,8.30
2019,04,17,04,19,8.30
2019,04,17,04,20,8.30
2019,04,17,04,21,8.30
2019,04,17,04,22,8.20
2019,04,17,04,23,8.00
2019,04,17,04,24,7.80
2019,04,17,04,25,7.70
2019,04,17,04,26,7.50
2019,04,17,04,27,7.40
2019,04,17,04,28,7.30
2019,04,17,04,29,7.20
2019,04,17,04,30,7.10
2019,04,17,04,31,7.10
2019,04,17,04,32,7.10
2019,04,17,04,33,7.00
2019,04,17,04,34,7.00
2019,04,17,04,35,6.90
2019,04,17,04,36,6.90
2019,04,17,04,37,6.80
2019,04,17,04,38,6.80
2019,04,17,04,39,6.80
2019,04,17,04,40,6.80
2019,04,17,04,41,6.80
2019,04,17,04,42,6.80
2019,04,17,04,43,6.80
2019,04,17,04,44,6.80
2019,04,17,04,45,6.80
2019,04,17,04,46,6.80
2019,04,17,04,47,6.80
2019,04,17,04,48,6.80
2019,04,17,04,49,6.90
2019,04,17,04,50,6.90
2019,04,17,04,51,6.90
2019,04,17,04,52,6.90
2019,04,17,04,53,6.90
2019,04,17,04,54,6.90
2019,04,17,04,55,7.00
2019,04,17,04,56,7.00
2019,04,17,04,57,7.00
2019,04,17,04,58,7.00
2019,04,17,04,59,7.00
2019,04,17,05,00,7.00
2019,04,17,05,01,7.00
2019,04,17,05,02,7.00
2019,04,17,05,03,7.00
2019,04,17,05,04,7.00
2019,04,17,05,05,7.00
2019,04,17,05,06,6.90
2019,04,17,05,07,6.90
2019,04,17,05,08,6.80
2019,04,17,05,09,6.80
2019,04,17,05,10,6.70
2019,04,17,05,11,6.70
2019,04,17,05,12,6.60
2019,04,17,05,13,6.60
2019,04,17,05,14,6.50
2019,04,17,05,15,6.40
2019,04,17,05,16,6.40
2019,04,17,05,17,6.40
2019,04,17,05,18,6.40
2019,04,17,05,19,6.40
2019,04,17,05,20,6.40
2019,04,17,05,21,6.40
2019,04,17,05,22,6.40
2019,04,17,05,23,6.40
2019,04,17,05,24,6.40
2019,04,17,05,25,6.50
2019,04,17,05,26,6.50
2019,04,17,05,27,6.50
2019,04,17,05,28,6.50
2019,04,17,05,29,6.50
2019,04,17,05,30,6.50
2019,04,17,05,31,6.50
2019,04,17,05,32,6.50
2019,04,17,05,33,6.50
2019,04,17,05,34,6.50
2019,04,17,05,35,6.40
2019,04,17,05,36,6.40
2019,04,17,05,37,6.40
2019,04,17,05,38,6.40
2019,04,17,05,39,6.40
2019,04,17,05,40,6.40
2019,04,17,05,41,6.40
2019,04,17,05,42,6.40
2019,04,17,05,43,6.30
2019,04,17,05,44,6.30
2019,04,17,05,45,6.30
2019,04,17,05,46,6.30
2019,04,17,05,47,6.30
2019,04,17,05,48,6.30
2019,04,17,05,49,6.20
2019,04,17,05,50,6.20
2019,04,17,05,51,6.20
2019,04,17,05,52,6.20
2019,04,17,05,53,6.10
2019,04,17,05,54,6.10
2019,04,17,05,55,6.10
2019,04,17,05,56,6.10
2019,04,17,05,57,6.00
2019,04,17,05,58,6.00
2019,04,17,05,59,6.00
2019,04,17,06,00,5.90
2019,04,17,06,01,5.90
2019,04,17,06,02,5.90
2019,04,17,06,03,5.90
2019,04,17,06,04,5.90
2019,04,17,06,05,5.80
2019,04,17,06,06,5.80
2019,04,17,06,07,5.80
2019,04,17,06,08,5.70
2019,04,17,06,09,5.70
2019,04,17,06,10,5.70
2019,04,17,06,11,5.60
2019,04,17,06,12,5.60
2019,04,17,06,13,5.60
2019,04,17,06,14,5.60
2019,04,17,06,15,5.60
2019,04,17,06,16,5.50
2019,04,17,06,17,5.50
2019,04,17,06,18,5.50
2019,04,17,06,19,5.40
2019,04,17,06,20,5.40
2019,04,17,06,21,5.40
2019,04,17,06,22,5.40
2019,04,17,06,23,5.40
2019,04,17,06,24,5.40
2019,04,17,06,25,5.30
2019,04,17,06,26,5.30
2019,04,17,06,27,5.30
2019,04,17,06,28,5.30
2019,04,17,06,29,5.30
2019,04,17,06,30,5.30
2019,04,17,06,31,5.30
2019,04,17,06,32,5.30
2019,04,17,06,33,5.30
2019,04,17,06,34,5.30
2019,04,17,06,35,5.30
2019,04,17,06,36,5.30
2019,04,17,06,37,5.40
2019,04,17,06,38,5.40
2019,04,17,06,39,5.40
2019,04,17,06,40,5.40
2019,04,17,06,41,5.40
2019,04,17,06,42,5.40
2019,04,17,06,43,5.40
2019,04,17,06,44,5.40
2019,04,17,06,45,5.40
2019,04,17,06,46,5.40
2019,04,17,06,47,5.40
2019,04,17,06,48,5.40
2019,04,17,06,49,5.40
2019,04,17,06,50,5.40
2019,04,17,06,51,5.40
2019,04,17,06,52,5.40
2019,04,17,06,53,5.40
2019,04,17,06,54,5.40
2019,04,17,06,55,5.30
2019,04,17,06,56,5.30
2019,04,17,06,57,5.30
2019,04,17,06,58,5.30
2019,04,17,06,59,5.30
2019,04,17,07,00,5.30
2019,04,17,07,01,5.30
2019,04,17,07,02,5.30
2019,04,17,07,03,5.30
2019,04,17,07,04,5.30
2019,04,17,07,05,5.30
2019,04,17,07,06,5.30
2019,04,17,07,07,5.30
2019,04,17,07,08,5.30
2019,04,17,07,09,5.30
2019,04,17,07,10,5.30
2019,04,17,07,11,5.30
2019,04,17,07,12,5.30
2019,04,17,07,13,5.40
2019,04,17,07,14,5.40
2019,04,17,07,15,5.40
2019,04,17,07,16,5.40
2019,04,17,07,17,5.40
2019,04,17,07,18,5.40
2019,04,17,07,19,5.40
2019,04,17,07,20,5.50
2019,04,17,07,21,5.50
2019,04,17,07,22,5.50
2019,04,17,07,23,5.50
2019,04,17,07,24,5.50
2019,04,17,07,25,5.60
2019,04,17,07,26,5.60
2019,04,17,07,27,5.60
2019,04,17,07,28,5.60
2019,04,17,07,29,5.60
2019,04,17,07,30,5.70
2019,04,17,07,31,5.70
2019,04,17,07,32,5.70
2019,04,17,07,33,5.70
2019,04,17,07,34,5.80
2019,04,17,07,35,5.80
2019,04,17,07,36,5.80
2019,04,17,07,37,5.80
2019,04,17,07,38,5.80
2019,04,17,07,39,5.80
2019,04,17,07,40,5.80
2019,04,17,07,41,5.80
2019,04,17,07,42,5.80
2019,04,17,07,43,5.80
2019,04,17,07,44,5.80
2019,04,17,07,45,5.80
2019,04,17,07,46,5.80
2019,04,17,07,47,5.80
2019,04,17,07,48,5.80
2019,04,17,07,49,5.80
2019,04,17,07,50,5.80
2019,04,17,07,51,5.80
2019,04,17,07,52,5.90
2019,04,17,07,53,5.90
2019,04,17,07,54,6.00
2019,04,17,07,55,6.10
2019,04,17,07,56,6.10
2019,04,17,07,57,6.20
2019,04,17,07,58,6.20
2019,04,17,07,59,6.30
2019,04,17,08,00,6.30
2019,04,17,08,01,6.40
2019,04,17,08,02,6.50
2019,04,17,08,03,6.50
2019,04,17,08,04,6.60
2019,04,17,08,05,6.70
2019,04,17,08,06,6.70
2019,04,17,08,07,6.80
2019,04,17,08,08,6.80
2019,04,17,08,09,6.80
2019,04,17,08,10,6.90
2019,04,17,08,11,6.90
2019,04,17,08,12,6.90
2019,04,17,08,13,7.00
2019,04,17,08,14,7.10
2019,04,17,08,15,7.10
2019,04,17,08,16,7.10
2019,04,17,08,17,7.20
2019,04,17,08,18,7.20
2019,04,17,08,19,7.30
2019,04,17,08,20,7.30
2019,04,17,08,21,7.30
2019,04,17,08,22,7.30
2019,04,17,08,23,7.40
2019,04,17,08,24,7.40
2019,04,17,08,25,7.40
2019,04,17,08,26,7.40
2019,04,17,08,27,7.40
2019,04,17,08,28,7.40
2019,04,17,08,29,7.40
2019,04,17,08,30,7.50
2019,04,17,08,31,7.50
2019,04,17,08,32,7.50
2019,04,17,08,33,7.50
2019,04,17,08,34,7.50
2019,04,17,08,35,7.50
2019,04,17,08,36,7.50
2019,04,17,08,37,7.60
2019,04,17,08,38,7.50
2019,04,17,08,39,7.50
2019,04,17,08,40,7.50
2019,04,17,08,41,7.50
2019,04,17,08,42,7.50
2019,04,17,08,43,7.60
2019,04,17,08,44,7.60
2019,04,17,08,45,7.60
2019,04,17,08,46,7.60
2019,04,17,08,47,7.70
2019,04,17,08,48,7.70
2019,04,17,08,49,7.70
2019,04,17,08,50,7.80
2019,04,17,08,51,7.80
2019,04,17,08,52,7.90
2019,04,17,08,53,7.90
2019,04,17,08,54,8.00
2019,04,17,08,55,8.00
2019,04,17,08,56,8.00
2019,04,17,08,57,8.10
2019,04,17,08,58,8.10
2019,04,17,08,59,8.20
2019,04,17,09,00,8.20
2019,04,17,09,01,8.30
2019,04,17,09,02,8.40
2019,04,17,09,03,8.40
2019,04,17,09,04,8.50
2019,04,17,09,05,8.50
2019,04,17,09,06,8.60
2019,04,17,09,07,8.80
2019,04,17,09,08,8.90
2019,04,17,09,09,9.00
2019,04,17,09,10,9.10
2019,04,17,09,11,9.30
2019,04,17,09,12,9.40
2019,04,17,09,13,9.50
2019,04,17,09,14,9.60
2019,04,17,09,15,9.80
2019,04,17,09,16,9.90
2019,04,17,09,17,10.10
2019,04,17,09,18,10.20
2019,04,17,09,19,10.30
2019,04,17,09,20,10.40
2019,04,17,09,21,10.50
2019,04,17,09,22,10.60
2019,04,17,09,23,10.70
2019,04,17,09,24,10.80
2019,04,17,09,25,10.90
2019,04,17,09,26,11.00
2019,04,17,09,27,11.00
2019,04,17,09,28,11.00
2019,04,17,09,29,11.00
2019,04,17,09,30,11.00
2019,04,17,09,31,11.10
2019,04,17,09,32,11.10
2019,04,17,09,33,11.10
2019,04,17,09,34,11.10
2019,04,17,09,35,11.10
2019,04,17,09,36,11.10
2019,04,17,09,37,11.20
2019,04,17,09,38,11.20
2019,04,17,09,39,11.20
2019,04,17,09,40,11.20
2019,04,17,09,41,11.20
2019,04,17,09,42,11.20
2019,04,17,09,43,11.20
2019,04,17,09,44,11.30
2019,04,17,09,45,11.30
2019,04,17,09,46,11.30
2019,04,17,09,47,11.30
2019,04,17,09,48,11.30
2019,04,17,09,49,11.30
2019,04,17,09,50,11.30
2019,04,17,09,51,11.40
2019,04,17,09,52,11.40
2019,04,17,09,53,11.40
2019,04,17,09,54,11.40
2019,04,17,09,55,11.40
2019,04,17,09,56,11.30
2019,04,17,09,57,11.30
2019,04,17,09,58,11.30
2019,04,17,09,59,11.30
2019,04,17,10,00,11.20
2019,04,17,10,01,11.30
2019,04,17,10,02,11.30
2019,04,17,10,03,11.30
2019,04,17,10,04,11.30
2019,04,17,10,05,11.30
2019,04,17,10,06,11.30
2019,04,17,10,07,11.30
2019,04,17,10,08,11.30
2019,04,17,10,09,11.40
2019,04,17,10,10,11.40
2019,04,17,10,11,11.40
2019,04,17,10,12,11.40
2019,04,17,10,13,11.50
2019,04,17,10,14,11.50
2019,04,17,10,15,11.60
2019,04,17,10,16,11.70
2019,04,17,10,17,11.70
2019,04,17,10,18,11.80
2019,04,17,10,19,11.80
2019,04,17,10,20,11.90
2019,04,17,10,21,12.00
2019,04,17,10,22,12.10
2019,04,17,10,23,12.10
2019,04,17,10,24,12.20
2019,04,17,10,25,12.20
2019,04,17,10,26,12.20
2019,04,17,10,27,12.20
2019,04,17,10,28,12.20
2019,04,17,10,29,12.20
2019,04,17,10,30,12.10
2019,04,17,10,31,12.00
2019,04,17,10,32,12.00
2019,04,17,10,33,11.90
2019,04,17,10,34,11.80
2019,04,17,10,35,11.80
2019,04,17,10,36,11.80
2019,04,17,10,37,11.80
2019,04,17,10,38,11.80
2019,04,17,10,39,11.70
2019,04,17,10,40,11.70
2019,04,17,10,41,11.70
2019,04,17,10,42,11.80
2019,04,17,10,43,11.80
2019,04,17,10,44,11.80
2019,04,17,10,45,11.90
2019,04,17,10,46,11.90
2019,04,17,10,47,11.90
2019,04,17,10,48,11.90
2019,04,17,10,49,11.90
2019,04,17,10,50,11.90
2019,04,17,10,51,11.90
2019,04,17,10,52,11.90
2019,04,17,10,53,11.80
2019,04,17,10,54,11.90
2019,04,17,10,55,11.90
2019,04,17,10,56,12.00
2019,04,17,10,57,12.00
2019,04,17,10,58,12.10
2019,04,17,10,59,12.10
2019,04,17,11,00,12.10
2019,04,17,11,01,12.20
2019,04,17,11,02,12.20
2019,04,17,11,03,12.30
2019,04,17,11,04,12.40
2019,04,17,11,05,12.40
2019,04,17,11,06,12.40
2019,04,17,11,07,12.40
2019,04,17,11,08,12.50
2019,04,17,11,09,12.50
2019,04,17,11,10,12.50
2019,04,17,11,11,12.50
2019,04,17,11,12,12.50
2019,04,17,11,13,12.60
2019,04,17,11,14,12.60
2019,04,17,11,15,12.60
2019,04,17,11,16,12.60
2019,04,17,11,17,12.60
2019,04,17,11,18,12.60
2019,04,17,11,19,12.60
2019,04,17,11,20,12.60
2019,04,17,11,21,12.60
2019,04,17,11,22,12.70
2019,04,17,11,23,12.70
2019,04,17,11,24,12.70
2019,04,17,11,25,12.70
2019,04,17,11,26,12.70
2019,04,17,11,27,12.70
2019,04,17,11,28,12.80
2019,04,17,11,29,12.80
2019,04,17,11,30,12.90
2019,04,17,11,31,12.90
2019,04,17,11,32,12.90
2019,04,17,11,33,12.80
2019,04,17,11,34,12.90
2019,04,17,11,35,12.90
2019,04,17,11,36,13.00
2019,04,17,11,37,13.00
2019,04,17,11,38,13.10
2019,04,17,11,39,13.10
2019,04,17,11,40,13.10
2019,04,17,11,41,13.10
2019,04,17,11,42,13.10
2019,04,17,11,43,13.10
2019,04,17,11,44,13.10
2019,04,17,11,45,13.10
2019,04,17,11,46,13.10
2019,04,17,11,47,13.00
2019,04,17,11,48,13.00
2019,04,17,11,49,13.10
2019,04,17,11,50,13.10
2019,04,17,11,51,13.10
2019,04,17,11,52,13.20
2019,04,17,11,53,13.20
2019,04,17,11,54,13.20
2019,04,17,11,55,13.20
2019,04,17,11,56,13.20
2019,04,17,11,57,13.20
2019,04,17,11,58,13.10
2019,04,17,11,59,13.00
2019,04,17,12,00,12.90
2019,04,17,12,01,12.90
2019,04,17,12,02,12.90
2019,04,17,12,03,13.00
2019,04,17,12,04,13.00
2019,04,17,12,05,13.10
2019,04,17,12,06,13.10
2019,04,17,12,07,13.10
2019,04,17,12,08,13.00
2019,04,17,12,09,12.90
2019,04,17,12,10,12.90
2019,04,17,12,11,12.90
2019,04,17,12,12,13.00
2019,04,17,12,13,13.00
2019,04,17,12,14,13.10
2019,04,17,12,15,13.10
2019,04,17,12,16,13.00
2019,04,17,12,17,12.90
2019,04,17,12,18,12.90
2019,04,17,12,19,12.90
2019,04,17,12,20,12.90
2019,04,17,12,21,12.80
2019,04,17,12,22,12.80
2019,04,17,12,23,12.80
2019,04,17,12,24,12.70
2019,04,17,12,25,12.60
2019,04,17,12,26,12.60
2019,04,17,12,27,12.60
2019,04,17,12,28,12.60
2019,04,17,12,29,12.60
2019,04,17,12,30,12.70
2019,04,17,12,31,12.70
2019,04,17,12,32,12.70
2019,04,17,12,33,12.70
2019,04,17,12,34,12.60
2019,04,17,12,35,12.60
2019,04,17,12,36,12.70
2019,04,17,12,37,12.60
2019,04,17,12,38,12.60
2019,04,17,12,39,12.50
2019,04,17,12,40,12.40
2019,04,17,12,41,12.30
2019,04,17,12,42,12.30
2019,04,17,12,43,12.30
2019,04,17,12,44,12.30
2019,04,17,12,45,12.30
2019,04,17,12,46,12.30
2019,04,17,12,47,12.40
2019,04,17,12,48,12.40
2019,04,17,12,49,12.40
2019,04,17,12,50,12.50
2019,04,17,12,51,12.50
2019,04,17,12,52,12.60
2019,04,17,12,53,12.70
2019,04,17,12,54,12.70
2019,04,17,12,55,12.60
2019,04,17,12,56,12.60
2019,04,17,12,57,12.50
2019,04,17,12,58,12.50
2019,04,17,12,59,12.50
2019,04,17,13,00,12.50
2019,04,17,13,01,12.50
2019,04,17,13,02,12.60
2019,04,17,13,03,12.60
2019,04,17,13,04,12.70
2019,04,17,13,05,12.70
2019,04,17,13,06,12.70
2019,04,17,13,07,12.70
2019,04,17,13,08,12.70
2019,04,17,13,09,12.70
2019,04,17,13,10,12.60
2019,04,17,13,11,12.60
2019,04,17,13,12,12.60
2019,04,17,13,13,12.50
2019,04,17,13,14,12.50
2019,04,17,13,15,12.50
2019,04,17,13,16,12.50
2019,04,17,13,17,12.50
2019,04,17,13,18,12.50
2019,04,17,13,19,12.50
2019,04,17,13,20,12.50
2019,04,17,13,21,12.50
2019,04,17,13,22,12.50
2019,04,17,13,23,12.60
2019,04,17,13,24,12.60
2019,04,17,13,25,12.70
2019,04,17,13,26,12.70
2019,04,17,13,27,12.80
2019,04,17,13,28,12.80
2019,04,17,13,29,12.80
2019,04,17,13,30,12.80
2019,04,17,13,31,12.80
2019,04,17,13,32,12.80
2019,04,17,13,33,12.80
2019,04,17,13,34,12.80
2019,04,17,13,35,12.80
2019,04,17,13,36,12.80
2019,04,17,13,37,12.90
2019,04,17,13,38,12.90
2019,04,17,13,39,13.00
2019,04,17,13,40,13.00
2019,04,17,13,41,13.00
2019,04,17,13,42,13.00
2019,04,17,13,43,13.00
2019,04,17,13,44,13.10
2019,04,17,13,45,13.10
2019,04,17,13,46,13.10
2019,04,17,13,47,13.10
2019,04,17,13,48,13.10
2019,04,17,13,49,13.10
2019,04,17,13,50,13.10
2019,04,17,13,51,13.10
2019,04,17,13,52,13.10
2019,04,17,13,53,13.10
2019,04,17,13,54,13.10
2019,04,17,13,55,13.20
2019,04,17,13,56,13.20
2019,04,17,13,57,13.30
2019,04,17,13,58,13.40
2019,04,17,13,59,13.50
2019,04,17,14,00,13.60
2019,04,17,14,01,13.70
2019,04,17,14,02,13.70
2019,04,17,14,03,13.80
2019,04,17,14,04,13.80
2019,04,17,14,05,13.90
2019,04,17,14,06,13.90
2019,04,17,14,07,14.00
2019,04,17,14,08,14.10
2019,04,17,14,09,14.10
2019,04,17,14,10,14.20
2019,04,17,14,11,14.20
2019,04,17,14,12,14.20
2019,04,17,14,13,14.20
2019,04,17,14,14,14.20
2019,04,17,14,15,14.30
2019,04,17,14,16,14.20
2019,04,17,14,17,14.20
2019,04,17,14,18,14.30
2019,04,17,14,19,14.30
2019,04,17,14,20,14.30
2019,04,17,14,21,14.30
2019,04,17,14,22,14.30
2019,04,17,14,23,14.20
2019,04,17,14,24,14.20
2019,04,17,14,25,14.20
2019,04,17,14,26,14.20
2019,04,17,14,27,14.20
2019,04,17,14,28,14.20
2019,04,17,14,29,14.20
2019,04,17,14,30,14.20
2019,04,17,14,31,14.10
2019,04,17,14,32,14.10
2019,04,17,14,33,14.10
2019,04,17,14,34,14.00
2019,04,17,14,35,13.90
2019,04,17,14,36,13.80
2019,04,17,14,37,13.80
2019,04,17,14,38,13.80
2019,04,17,14,39,13.80
2019,04,17,14,40,13.80
2019,04,17,14,41,13.80
2019,04,17,14,42,13.80
2019,04,17,14,43,13.80
2019,04,17,14,44,13.70
2019,04,17,14,45,13.70
2019,04,17,14,46,13.70
2019,04,17,14,47,13.60
2019,04,17,14,48,13.60
2019,04,17,14,49,13.50
2019,04,17,14,50,13.50
2019,04,17,14,51,13.60
2019,04,17,14,52,13.50
2019,04,17,14,53,13.50
2019,04,17,14,54,13.50
2019,04,17,14,55,13.40
2019,04,17,14,56,13.40
2019,04,17,14,57,13.50
2019,04,17,14,58,13.50
2019,04,17,14,59,13.50
2019,04,17,15,00,13.50
2019,04,17,15,01,13.60
2019,04,17,15,02,13.60
2019,04,17,15,03,13.70
2019,04,17,15,04,13.80
2019,04,17,15,05,13.80
2019,04,17,15,06,13.80
2019,04,17,15,07,13.80
2019,04,17,15,08,13.80
2019,04,17,15,09,13.80
2019,04,17,15,10,13.70
2019,04,17,15,11,13.70
2019,04,17,15,12,13.70
2019,04,17,15,13,13.70
2019,04,17,15,14,13.60
2019,04,17,15,15,13.60
2019,04,17,15,16,13.60
2019,04,17,15,17,13.60
2019,04,17,15,18,13.60
2019,04,17,15,19,13.60
2019,04,17,15,20,13.60
2019,04,17,15,21,13.60
2019,04,17,15,22,13.60
2019,04,17,15,23,13.60
2019,04,17,15,24,13.60
2019,04,17,15,25,13.70
2019,04,17,15,26,13.70
2019,04,17,15,27,13.70
2019,04,17,15,28,13.70
2019,04,17,15,29,13.70
2019,04,17,15,30,13.70
2019,04,17,15,31,13.80
2019,04,17,15,32,13.80
2019,04,17,15,33,13.80
2019,04,17,15,34,13.80
2019,04,17,15,35,13.80
2019,04,17,15,36,13.80
2019,04,17,15,37,13.80
2019,04,17,15,38,13.80
2019,04,17,15,39,13.80
2019,04,17,15,40,13.70
2019,04,17,15,41,13.70
2019,04,17,15,42,13.70
2019,04,17,15,43,13.70
2019,04,17,15,44,13.70
2019,04,17,15,45,13.50
2019,04,17,15,46,13.50
2019,04,17,15,47,13.40
2019,04,17,15,48,13.40
2019,04,17,15,49,13.40
2019,04,17,15,50,13.40
2019,04,17,15,51,13.40
2019,04,17,15,52,13.40
2019,04,17,15,53,13.40
2019,04,17,15,54,13.30
2019,04,17,15,55,13.30
2019,04,17,15,56,13.30
2019,04,17,15,57,13.20
2019,04,17,15,58,13.20
2019,04,17,15,59,13.10
2019,04,17,16,00,13.10
2019,04,17,16,01,13.10
2019,04,17,16,02,13.00
2019,04,17,16,03,13.00
2019,04,17,16,04,13.00
2019,04,17,16,05,13.00
2019,04,17,16,06,12.90
2019,04,17,16,07,12.90
2019,04,17,16,08,12.90
2019,04,17,16,09,12.90
2019,04,17,16,10,12.90
2019,04,17,16,11,12.90
2019,04,17,16,12,12.80
2019,04,17,16,13,12.80
2019,04,17,16,14,12.80
2019,04,17,16,15,12.80
2019,04,17,16,16,12.80
2019,04,17,16,17,12.70
2019,04,17,16,18,12.70
2019,04,17,16,19,12.70
2019,04,17,16,20,12.70
2019,04,17,16,21,12.70
2019,04,17,16,22,12.70
2019,04,17,16,23,12.70
2019,04,17,16,24,12.70
2019,04,17,16,25,12.70
2019,04,17,16,26,12.70
2019,04,17,16,27,12.70
2019,04,17,16,28,12.70
2019,04,17,16,29,12.70
2019,04,17,16,30,12.60
2019,04,17,16,31,12.60
2019,04,17,16,32,12.60
2019,04,17,16,33,12.60
2019,04,17,16,34,12.60
2019,04,17,16,35,12.60
2019,04,17,16,36,12.60
2019,04,17,16,37,12.60
2019,04,17,16,38,12.70
2019,04,17,16,39,12.60
2019,04,17,16,40,12.70
2019,04,17,16,41,12.70
2019,04,17,16,42,12.70
2019,04,17,16,43,12.70
2019,04,17,16,44,12.70
2019,04,17,16,45,12.70
2019,04,17,16,46,12.70
2019,04,17,16,47,12.60
2019,04,17,16,48,12.60
2019,04,17,16,49,12.60
2019,04,17,16,50,12.60
2019,04,17,16,51,12.70
2019,04,17,16,52,12.70
2019,04,17,16,53,12.70
2019,04,17,16,54,12.70
2019,04,17,16,55,12.70
2019,04,17,16,56,12.70
2019,04,17,16,57,12.70
2019,04,17,16,58,12.70
2019,04,17,16,59,12.70
2019,04,17,17,00,12.70
2019,04,17,17,01,12.70
2019,04,17,17,02,12.70
2019,04,17,17,03,12.70
2019,04,17,17,04,12.70
2019,04,17,17,05,12.70
2019,04,17,17,06,12.70
2019,04,17,17,07,12.70
2019,04,17,17,08,12.70
2019,04,17,17,09,12.70
2019,04,17,17,10,12.70
2019,04,17,17,11,12.70
2019,04,17,17,12,12.70
2019,04,17,17,13,12.70
2019,04,17,17,14,12.70
2019,04,17,17,15,12.70
2019,04,17,17,16,12.60
2019,04,17,17,17,12.60
2019,04,17,17,18,12.50
2019,04,17,17,19,12.50
2019,04,17,17,20,12.40
2019,04,17,17,21,12.40
2019,04,17,17,22,12.30
2019,04,17,17,23,12.30
2019,04,17,17,24,12.30
2019,04,17,17,25,12.30
2019,04,17,17,26,12.30
2019,04,17,17,27,12.30
2019,04,17,17,28,12.20
2019,04,17,17,29,12.20
2019,04,17,17,30,12.20
2019,04,17,17,31,12.20
2019,04,17,17,32,12.20
2019,04,17,17,33,12.20
2019,04,17,17,34,12.20
2019,04,17,17,35,12.20
2019,04,17,17,36,12.20
2019,04,17,17,37,12.20
2019,04,17,17,38,12.20
2019,04,17,17,39,12.20
2019,04,17,17,40,12.20
2019,04,17,17,41,12.20
2019,04,17,17,42,12.20
2019,04,17,17,43,12.20